WBANNO,USDM_WEEK,LONGITUDE,LATITUDE,SMVWC_5_CM_MEAN,SMANOM_5_CM_MEAN,SMPERC_5_CM_30COUNTS,SMPERC_5_CM_70COUNTS,SMVWC_10_CM_MEAN,SMANOM_10_CM_MEAN,SMPERC_10_CM_30COUNTS,SMPERC_10_CM_70COUNTS,SMVWC_20_CM_MEAN,SMANOM_20_CM_MEAN,SMPERC_20_CM_30COUNTS,SMPERC_20_CM_70COUNTS,SMVWC_50_CM_MEAN,SMANOM_50_CM_MEAN,SMPERC_50_CM_30COUNTS,SMPERC_50_CM_70COUNTS,SMVWC_100_CM_MEAN,SMANOM_100_CM_MEAN,SMPERC_100_CM_30COUNTS,SMPERC_100_CM_70COUNTS,SMVWC_TOP_CM_MEAN,SMANOM_TOP_CM_MEAN,SMPERC_TOP_CM_30COUNTS,SMPERC_TOP_CM_70COUNTS,SMVWC_COLUMN_CM_MEAN,SMANOM_COLUMN_CM_MEAN,SMPERC_COLUMN_CM_30COUNTS,SMPERC_COLUMN_CM_70COUNTS
63838,20090709,-84.75,38.09,,,,,,,,,,,,,,,,,,,,,,,,,,,,
63838,20090710,-84.75,38.09,,,,,,,,,,,,,,,,,,,,,,,,,,,,
63838,20090711,-84.75,38.09,,,,,,,,,,,,,,,,,,,,,,,,,,,,
63838,20090712,-84.75,38.09,,,,,,,,,,,,,,,,,,,,,,,,,,,,
63838,20090713,-84.75,38.09,,,,,,,,,,,,,,,,,,,,,,,,,,,,
63838,20090714,-84.75,38.09,,,,,,,,,,,,,,,,,,,,,,,,,,,,
63838,20090715,-84.75,38.09,0.295,0.13,0,0,0.302,0.19,0,0,0.291,0.05,0,0,0.244,-0.19,0,0,,,,,0.298,0.16,0,0,,,,
63838,20090716,-84.75,38.09,0.293,0.12,0,0,0.3,0.19,0,0,0.29,0.05,0,0,0.244,-0.19,0,0,,,,,0.296,0.15,0,0,,,,
63838,20090717,-84.75,38.09,0.291,0.1,0,0.012,0.299,0.18,0,0,0.29,0.04,0,0,0.244,-0.17,0,0,,,,,0.295,0.14,0,0.012,,,,
63838,20090718,-84.75,38.09,0.298,0.15,0,0.155,0.302,0.21,0,0.125,0.29,0.04,0,0,0.244,-0.16,0,0,,,,,0.3,0.17,0,0.155,,,,
63838,20090719,-84.75,38.09,0.301,0.17,0,0.214,0.305,0.22,0,0.161,0.292,0.05,0,0,0.244,-0.14,0,0,,,,,0.303,0.19,0,0.214,,,,
63838,20090720,-84.75,38.09,0.303,0.18,0,0.214,0.307,0.23,0,0.161,0.293,0.06,0,0,0.244,-0.13,0,0,,,,,0.305,0.2,0,0.214,,,,
63838,20090721,-84.75,38.09,0.304,0.18,0,0.214,0.308,0.23,0,0.161,0.294,0.07,0,0,0.244,-0.11,0,0,,,,,0.306,0.2,0,0.214,,,,
63838,20090722,-84.75,38.09,0.305,0.17,0,0.214,0.309,0.22,0,0.161,0.296,0.07,0,0,0.243,-0.1,0,0,,,,,0.307,0.19,0,0.214,,,,
63838,20090723,-84.75,38.09,0.316,0.25,0,0.315,0.318,0.27,0,0.256,0.302,0.11,0,0.083,0.243,-0.08,0,0,,,,,0.317,0.26,0,0.315,,,,
63838,20090724,-84.75,38.09,0.329,0.34,0,0.446,0.329,0.34,0,0.399,0.311,0.18,0,0.226,0.243,-0.07,0,0,,,,,0.329,0.34,0,0.446,,,,
63838,20090725,-84.75,38.09,0.333,0.37,0,0.446,0.334,0.37,0,0.417,0.319,0.23,0,0.369,0.243,-0.05,0,0,,,,,0.333,0.37,0,0.446,,,,
63838,20090726,-84.75,38.09,0.341,0.42,0,0.53,0.341,0.42,0,0.524,0.326,0.28,0,0.512,0.246,-0.02,0,0.012,,,,,0.341,0.42,0,0.53,,,,
63838,20090727,-84.75,38.09,0.352,0.51,0,0.673,0.351,0.49,0,0.667,0.335,0.35,0,0.655,0.257,0.09,0,0.155,,,,,0.352,0.49,0,0.673,,,,
63838,20090728,-84.75,38.09,0.363,0.59,0,0.815,0.359,0.55,0,0.81,0.344,0.41,0,0.798,0.268,0.21,0,0.298,,,,,0.361,0.57,0,0.815,,,,
63838,20090729,-84.75,38.09,0.376,0.69,0,0.958,0.369,0.62,0,0.952,0.352,0.47,0,0.94,0.279,0.32,0,0.44,,,,,0.372,0.65,0,0.958,,,,
63838,20090730,-84.75,38.09,0.382,0.74,0,1,0.373,0.66,0,1,0.357,0.51,0,1,0.29,0.42,0,0.583,,,,,0.378,0.7,0,1,,,,
63838,20090731,-84.75,38.09,0.389,0.8,0,1,0.377,0.7,0,1,0.36,0.53,0,1,0.303,0.55,0,0.726,,,,,0.383,0.75,0,1,,,,
63838,20090801,-84.75,38.09,0.396,0.87,0,1,0.382,0.74,0,1,0.364,0.56,0,1,0.319,0.69,0,0.869,,,,,0.389,0.81,0,1,,,,
63838,20090802,-84.75,38.09,0.399,0.91,0,1,0.384,0.77,0,1,0.366,0.58,0,1,0.331,0.81,0,1,,,,,0.392,0.85,0,1,,,,
63838,20090803,-84.75,38.09,0.402,0.94,0,1,0.385,0.8,0,1,0.367,0.59,0,1,0.334,0.83,0,1,,,,,0.393,0.88,0,1,,,,
63838,20090804,-84.75,38.09,0.404,0.98,0,1,0.386,0.82,0,1,0.368,0.61,0,1,0.337,0.85,0,1,,,,,0.395,0.91,0,1,,,,
63838,20090805,-84.75,38.09,0.409,1.03,0,1,0.39,0.86,0,1,0.371,0.63,0,1,0.343,0.9,0,1,,,,,0.399,0.96,0,1,,,,
63838,20090806,-84.75,38.09,0.409,1.05,0,1,0.391,0.88,0,1,0.373,0.65,0,1,0.347,0.95,0,1,,,,,0.4,0.98,0,1,,,,
63838,20090807,-84.75,38.09,0.405,1.03,0,1,0.388,0.87,0,1,0.372,0.65,0,1,0.348,0.96,0,1,,,,,0.397,0.95,0,1,,,,
63838,20090808,-84.75,38.09,0.4,0.99,0,1,0.384,0.84,0,1,0.37,0.64,0,1,0.346,0.94,0,1,,,,,0.392,0.92,0,1,,,,
63838,20090809,-84.75,38.09,0.394,0.94,0,1,0.38,0.82,0,1,0.368,0.63,0,1,0.344,0.92,0,1,,,,,0.387,0.88,0,1,,,,
63838,20090810,-84.75,38.09,0.385,0.87,0,1,0.374,0.77,0,1,0.364,0.61,0,1,0.342,0.9,0,1,,,,,0.379,0.82,0,1,,,,
63838,20090811,-84.75,38.09,0.378,0.82,0,1,0.369,0.73,0,1,0.361,0.59,0,1,0.34,0.88,0,1,,,,,0.373,0.78,0,1,,,,
63838,20090812,-84.75,38.09,0.369,0.76,0,1,0.362,0.69,0,1,0.356,0.56,0,1,0.335,0.83,0,1,,,,,0.365,0.72,0,1,,,,
63838,20090813,-84.75,38.09,0.359,0.68,0,1,0.354,0.64,0,1,0.351,0.53,0,1,0.33,0.79,0,1,,,,,0.356,0.66,0,1,,,,
63838,20090814,-84.75,38.09,0.347,0.6,0,0.958,0.346,0.59,0,1,0.346,0.51,0,1,0.326,0.75,0,1,,,,,0.347,0.6,0,1,,,,
63838,20090815,-84.75,38.09,0.337,0.53,0,0.815,0.338,0.54,0,0.94,0.341,0.48,0,1,0.322,0.71,0,1,,,,,0.337,0.54,0,0.887,,,,
63838,20090816,-84.75,38.09,0.327,0.45,0,0.673,0.33,0.49,0,0.798,0.336,0.45,0,1,0.318,0.68,0,1,,,,,0.329,0.48,0,0.744,,,,
63838,20090817,-84.75,38.09,0.317,0.39,0,0.53,0.323,0.44,0,0.655,0.331,0.42,0,0.946,0.314,0.65,0,1,,,,,0.32,0.42,0,0.601,,,,
63838,20090818,-84.75,38.09,0.31,0.33,0,0.44,0.316,0.4,0,0.512,0.326,0.39,0,0.804,0.311,0.62,0,1,,,,,0.313,0.37,0,0.512,,,,
63838,20090819,-84.75,38.09,0.305,0.31,0,0.44,0.31,0.35,0,0.375,0.321,0.35,0,0.661,0.307,0.59,0,1,,,,,0.308,0.34,0,0.512,,,,
63838,20090820,-84.75,38.09,0.301,0.28,0,0.375,0.304,0.32,0,0.244,0.316,0.31,0,0.518,0.304,0.56,0,1,,,,,0.303,0.31,0,0.429,,,,
63838,20090821,-84.75,38.09,0.302,0.29,0,0.357,0.301,0.3,0,0.196,0.312,0.28,0,0.375,0.301,0.53,0,1,,,,,0.301,0.31,0,0.393,,,,
63838,20090822,-84.75,38.09,0.308,0.35,0,0.5,0.302,0.33,0,0.256,0.309,0.27,0,0.232,0.299,0.51,0,1,,,,,0.305,0.36,0,0.506,,,,
63838,20090823,-84.75,38.09,0.313,0.4,0,0.643,0.303,0.36,0,0.399,0.307,0.25,0,0.089,0.297,0.48,0,1,,,,,0.308,0.4,0,0.649,,,,
63838,20090824,-84.75,38.09,0.319,0.46,0,0.786,0.304,0.39,0,0.542,0.305,0.25,0,0,0.294,0.46,0,1,,,,,0.311,0.45,0,0.792,,,,
63838,20090825,-84.75,38.09,0.32,0.48,0,0.762,0.305,0.42,0,0.655,0.305,0.26,0,0,0.292,0.44,0,1,,,,,0.313,0.47,0,0.804,,,,
63838,20090826,-84.75,38.09,0.315,0.44,0,0.619,0.304,0.42,0,0.649,0.304,0.26,0,0,0.29,0.41,0,1,,,,,0.309,0.45,0,0.661,,,,
63838,20090827,-84.75,38.09,0.309,0.4,0,0.542,0.302,0.4,0,0.637,0.302,0.26,0,0,0.288,0.39,0,0.94,,,,,0.305,0.42,0,0.601,,,,
63838,20090828,-84.75,38.09,0.3,0.33,0,0.458,0.297,0.37,0,0.542,0.3,0.25,0,0,0.286,0.37,0,0.81,,,,,0.298,0.37,0,0.494,,,,
63838,20090829,-84.75,38.09,0.287,0.24,0,0.327,0.29,0.31,0,0.399,0.298,0.24,0,0,0.284,0.34,0,0.667,,,,,0.288,0.28,0,0.351,,,,
63838,20090830,-84.75,38.09,0.282,0.21,0,0.292,0.284,0.26,0,0.256,0.295,0.23,0,0,0.282,0.32,0,0.524,,,,,0.283,0.24,0,0.208,,,,
63838,20090831,-84.75,38.09,0.277,0.18,0,0.149,0.279,0.22,0,0.113,0.292,0.21,0,0,0.28,0.3,0,0.381,,,,,0.278,0.2,0,0.065,,,,
63838,20090901,-84.75,38.09,0.272,0.15,0,0.119,0.275,0.19,0,0,0.289,0.19,0,0,0.279,0.28,0,0.238,,,,,0.273,0.17,0,0,,,,
63838,20090902,-84.75,38.09,0.267,0.12,0,0.119,0.271,0.16,0,0,0.286,0.18,0,0,0.277,0.25,0,0.095,,,,,0.269,0.14,0,0,,,,
63838,20090903,-84.75,38.09,0.264,0.11,0,0.119,0.268,0.14,0,0,0.283,0.16,0,0,0.275,0.23,0,0.012,,,,,0.266,0.12,0,0,,,,
63838,20090904,-84.75,38.09,0.261,0.1,0,0.119,0.265,0.13,0,0,0.281,0.14,0,0,0.273,0.2,0,0,,,,,0.263,0.1,0,0,,,,
63838,20090905,-84.75,38.09,0.257,0.07,0,0.107,0.262,0.1,0,0,0.278,0.12,0,0,0.271,0.18,0,0,,,,,0.259,0.08,0,0,,,,
63838,20090906,-84.75,38.09,0.246,0,0,0,0.256,0.06,0,0,0.274,0.09,0,0,0.268,0.15,0,0,,,,,0.251,0.02,0,0,,,,
63838,20090907,-84.75,38.09,0.237,-0.07,0,0,0.25,0.01,0,0,0.27,0.06,0,0,0.266,0.12,0,0,,,,,0.244,-0.04,0,0,,,,
63838,20090908,-84.75,38.09,0.231,-0.1,0,0,0.245,-0.03,0,0,0.266,0.04,0,0,0.264,0.09,0,0,,,,,0.238,-0.07,0,0,,,,
63838,20090909,-84.75,38.09,0.227,-0.12,0,0,0.241,-0.06,0,0,0.263,0.01,0,0,0.262,0.07,0,0,,,,,0.234,-0.1,0,0,,,,
63838,20090910,-84.75,38.09,0.224,-0.14,0,0,0.238,-0.08,0,0,0.259,-0.01,0,0,0.26,0.04,0,0,,,,,0.231,-0.12,0,0,,,,
63838,20090911,-84.75,38.09,0.222,-0.15,0,0,0.235,-0.1,0,0,0.256,-0.02,0,0,0.259,0.03,0,0,,,,,0.228,-0.13,0,0,,,,
63838,20090912,-84.75,38.09,0.219,-0.16,0,0,0.232,-0.11,0,0,0.254,-0.04,0,0,0.257,0.01,0,0,,,,,0.226,-0.14,0,0,,,,
63838,20090913,-84.75,38.09,0.218,-0.17,0,0,0.23,-0.11,0,0,0.251,-0.05,0,0,0.256,-0.01,0,0,,,,,0.224,-0.14,0,0,,,,
63838,20090914,-84.75,38.09,0.216,-0.17,0,0,0.229,-0.11,0,0,0.248,-0.07,0,0,0.254,-0.03,0,0,,,,,0.222,-0.15,0,0,,,,
63838,20090915,-84.75,38.09,0.211,-0.2,0,0,0.226,-0.12,0,0,0.244,-0.1,0.006,0,0.253,-0.05,0,0,,,,,0.218,-0.16,0,0,,,,
63838,20090916,-84.75,38.09,0.206,-0.23,0,0,0.222,-0.14,0,0,0.24,-0.13,0.006,0,0.251,-0.07,0,0,,,,,0.214,-0.18,0,0,,,,
63838,20090917,-84.75,38.09,0.2,-0.26,0,0,0.219,-0.15,0,0,0.235,-0.16,0.006,0,0.249,-0.1,0,0,,,,,0.21,-0.2,0,0,,,,
63838,20090918,-84.75,38.09,0.195,-0.28,0,0,0.215,-0.17,0,0,0.231,-0.2,0.006,0,0.246,-0.13,0,0,,,,,0.205,-0.22,0,0,,,,
63838,20090919,-84.75,38.09,0.19,-0.31,0,0,0.211,-0.18,0,0,0.226,-0.24,0.042,0,0.244,-0.16,0,0,,,,,0.201,-0.24,0,0,,,,
63838,20090920,-84.75,38.09,0.186,-0.32,0.006,0,0.208,-0.19,0,0,0.222,-0.26,0.095,0,0.242,-0.18,0,0,,,,,0.197,-0.25,0,0,,,,
63838,20090921,-84.75,38.09,0.214,-0.13,0.006,0.137,0.231,-0.02,0,0.137,0.234,-0.16,0.101,0.107,0.24,-0.21,0,0,,,,,0.222,-0.07,0,0.137,,,,
63838,20090922,-84.75,38.09,0.245,0.09,0.006,0.28,0.258,0.17,0,0.28,0.254,0.02,0.095,0.25,0.238,-0.23,0,0,,,,,0.251,0.13,0,0.28,,,,
63838,20090923,-84.75,38.09,0.274,0.29,0.006,0.423,0.283,0.36,0,0.423,0.274,0.2,0.095,0.393,0.237,-0.24,0,0,,,,,0.279,0.32,0,0.423,,,,
63838,20090924,-84.75,38.09,0.306,0.5,0.006,0.565,0.31,0.55,0,0.565,0.296,0.38,0.095,0.536,0.236,-0.24,0,0,,,,,0.308,0.52,0,0.565,,,,
63838,20090925,-84.75,38.09,0.338,0.72,0.006,0.708,0.337,0.73,0,0.708,0.318,0.57,0.095,0.679,0.236,-0.23,0,0,,,,,0.337,0.72,0,0.708,,,,
63838,20090926,-84.75,38.09,0.371,0.93,0.006,0.851,0.365,0.92,0,0.851,0.341,0.76,0.06,0.821,0.238,-0.2,0,0,,,,,0.368,0.92,0,0.851,,,,
63838,20090927,-84.75,38.09,0.406,1.16,0,0.994,0.395,1.12,0,0.994,0.366,0.96,0.006,0.964,0.252,-0.03,0,0.137,,,,,0.401,1.13,0,0.994,,,,
63838,20090928,-84.75,38.09,0.408,1.16,0,1,0.397,1.11,0,1,0.374,1.02,0,1,0.268,0.16,0,0.28,,,,,0.403,1.13,0,1,,,,
63838,20090929,-84.75,38.09,0.406,1.12,0,1,0.394,1.07,0,1,0.375,1.01,0,1,0.283,0.34,0,0.423,,,,,0.4,1.1,0,1,,,,
63838,20090930,-84.75,38.09,0.404,1.09,0,1,0.392,1.04,0,1,0.374,0.99,0,1,0.296,0.51,0,0.565,,,,,0.398,1.07,0,1,,,,
63838,20091001,-84.75,38.09,0.399,1.04,0,1,0.387,0.99,0,1,0.372,0.96,0,1,0.309,0.66,0,0.708,,,,,0.393,1.03,0,1,,,,
63838,20091002,-84.75,38.09,0.394,0.98,0,1,0.383,0.94,0,1,0.369,0.93,0,1,0.321,0.8,0,0.851,,,,,0.388,0.98,0,1,,,,
63838,20091003,-84.75,38.09,0.392,0.96,0,1,0.38,0.91,0,1,0.366,0.89,0,1,0.331,0.91,0,0.994,,,,,0.386,0.95,0,1,,,,
63838,20091004,-84.75,38.09,0.387,0.91,0,1,0.375,0.86,0,1,0.362,0.85,0,1,0.328,0.89,0,1,,,,,0.381,0.89,0,1,,,,
63838,20091005,-84.75,38.09,0.383,0.86,0,1,0.371,0.82,0,1,0.358,0.81,0,1,0.324,0.83,0,1,,,,,0.377,0.85,0,1,,,,
63838,20091006,-84.75,38.09,0.379,0.82,0,1,0.368,0.78,0,1,0.355,0.77,0,1,0.32,0.79,0,1,,,,,0.374,0.8,0,1,,,,
63838,20091007,-84.75,38.09,0.376,0.78,0,1,0.366,0.75,0,1,0.353,0.74,0,1,0.317,0.76,0,1,,,,,0.371,0.77,0,1,,,,
63838,20091008,-84.75,38.09,0.374,0.75,0,1,0.364,0.72,0,1,0.351,0.71,0,1,0.315,0.73,0,1,,,,,0.369,0.74,0,1,,,,
63838,20091009,-84.75,38.09,0.379,0.76,0,1,0.367,0.72,0,1,0.353,0.69,0,1,0.313,0.72,0,1,,,,,0.373,0.75,0,1,,,,
63838,20091010,-84.75,38.09,0.382,0.77,0,1,0.369,0.72,0,1,0.356,0.69,0,1,0.319,0.78,0,1,,,,,0.376,0.75,0,1,,,,
63838,20091011,-84.75,38.09,0.385,0.77,0,1,0.372,0.71,0,1,0.358,0.68,0,1,0.324,0.81,0,1,,,,,0.379,0.75,0,1,,,,
63838,20091012,-84.75,38.09,0.389,0.77,0,1,0.375,0.7,0,1,0.36,0.66,0,1,0.327,0.84,0,1,,,,,0.382,0.74,0,1,,,,
63838,20091013,-84.75,38.09,0.393,0.77,0,1,0.378,0.69,0,1,0.362,0.65,0,1,0.33,0.87,0,1,,,,,0.385,0.74,0,1,,,,
63838,20091014,-84.75,38.09,0.396,0.77,0,1,0.381,0.68,0,1,0.363,0.64,0,1,0.333,0.9,0,1,,,,,0.389,0.73,0,1,,,,
63838,20091015,-84.75,38.09,0.406,0.81,0,1,0.389,0.71,0,1,0.368,0.64,0,1,0.339,0.97,0,1,,,,,0.398,0.76,0,1,,,,
63838,20091016,-84.75,38.09,0.409,0.8,0,1,0.391,0.7,0,1,0.369,0.62,0,1,0.344,1.03,0,1,,,,,0.4,0.75,0,1,,,,
63838,20091017,-84.75,38.09,0.407,0.76,0,1,0.389,0.66,0,1,0.368,0.58,0,1,0.341,1,0,1,,,,,0.398,0.7,0,1,,,,
63838,20091018,-84.75,38.09,0.406,0.73,0,1,0.388,0.63,0,1,0.368,0.54,0,1,0.34,0.99,0,1,,,,,0.397,0.67,0,1,,,,
63838,20091019,-84.75,38.09,0.406,0.71,0,1,0.387,0.61,0,1,0.368,0.51,0,1,0.339,0.97,0,1,,,,,0.397,0.65,0,1,,,,
63838,20091020,-84.75,38.09,0.407,0.68,0,1,0.387,0.59,0,1,0.367,0.47,0,1,0.338,0.96,0,1,,,,,0.397,0.63,0,1,,,,
63838,20091021,-84.75,38.09,0.407,0.66,0,1,0.386,0.56,0,1,0.367,0.44,0,1,0.338,0.94,0,1,,,,,0.396,0.61,0,1,,,,
63838,20091022,-84.75,38.09,0.4,0.6,0,1,0.38,0.5,0,1,0.364,0.4,0,1,0.334,0.88,0,1,,,,,0.39,0.55,0,1,,,,
63838,20091023,-84.75,38.09,0.394,0.54,0,1,0.374,0.45,0,1,0.361,0.36,0,1,0.33,0.83,0,1,,,,,0.384,0.49,0,1,,,,
63838,20091024,-84.75,38.09,0.396,0.54,0,1,0.376,0.44,0,1,0.361,0.35,0,1,0.329,0.8,0,1,,,,,0.386,0.48,0,1,,,,
63838,20091025,-84.75,38.09,0.397,0.53,0,1,0.376,0.42,0,1,0.361,0.34,0,1,0.33,0.79,0,1,,,,,0.387,0.47,0,1,,,,
63838,20091026,-84.75,38.09,0.396,0.51,0,1,0.377,0.41,0,1,0.361,0.33,0,1,0.331,0.78,0,1,,,,,0.386,0.45,0,1,,,,
63838,20091027,-84.75,38.09,0.396,0.49,0,1,0.377,0.4,0,1,0.362,0.32,0,1,0.331,0.78,0,1,,,,,0.387,0.44,0,1,,,,
63838,20091028,-84.75,38.09,0.4,0.5,0,1,0.381,0.4,0,1,0.363,0.31,0,1,0.333,0.8,0,1,,,,,0.391,0.45,0,1,,,,
63838,20091029,-84.75,38.09,0.406,0.52,0,1,0.386,0.42,0,1,0.366,0.32,0,1,0.337,0.83,0,1,,,,,0.396,0.47,0,1,,,,
63838,20091030,-84.75,38.09,0.412,0.54,0,1,0.391,0.44,0,1,0.369,0.33,0,0.994,0.339,0.85,0,1,,,,,0.402,0.49,0,1,,,,
63838,20091031,-84.75,38.09,0.412,0.53,0,1,0.392,0.43,0,1,0.369,0.32,0,0.994,0.341,0.87,0,1,,,,,0.402,0.48,0,1,,,,
63838,20091101,-84.75,38.09,0.415,0.54,0,1,0.395,0.45,0,1,0.37,0.32,0,0.994,0.343,0.89,0,1,,,,,0.405,0.49,0,1,,,,
63838,20091102,-84.75,38.09,0.418,0.56,0,1,0.397,0.46,0,1,0.371,0.32,0,0.994,0.344,0.9,0,1,,,,,0.407,0.5,0,1,,,,
63838,20091103,-84.75,38.09,0.421,0.58,0,1,0.399,0.47,0,1,0.372,0.33,0,0.994,0.344,0.91,0,1,,,,,0.41,0.52,0,1,,,,
63838,20091104,-84.75,38.09,0.419,0.58,0,1,0.397,0.46,0,1,0.372,0.32,0,0.994,0.343,0.89,0,1,,,,,0.408,0.51,0,1,,,,
63838,20091105,-84.75,38.09,0.416,0.57,0,1,0.395,0.46,0,1,0.37,0.3,0,0.994,0.34,0.86,0,1,,,,,0.406,0.51,0,1,,,,
63838,20091106,-84.75,38.09,0.414,0.57,0,1,0.393,0.46,0,1,0.368,0.29,0,1,0.339,0.84,0,1,,,,,0.404,0.51,0,1,,,,
63838,20091107,-84.75,38.09,0.41,0.55,0,1,0.39,0.45,0,1,0.366,0.26,0,0.988,0.335,0.8,0,1,,,,,0.4,0.5,0,1,,,,
63838,20091108,-84.75,38.09,0.404,0.52,0,1,0.385,0.42,0,1,0.362,0.23,0,0.935,0.331,0.73,0,1,,,,,0.395,0.48,0,1,,,,
63838,20091109,-84.75,38.09,0.4,0.5,0,1,0.382,0.41,0,1,0.359,0.2,0,0.792,0.328,0.69,0,1,,,,,0.391,0.46,0,1,,,,
63838,20091110,-84.75,38.09,0.396,0.48,0,1,0.379,0.4,0,1,0.356,0.17,0,0.649,0.325,0.65,0,1,,,,,0.387,0.44,0,1,,,,
63838,20091111,-84.75,38.09,0.392,0.46,0,1,0.377,0.38,0,1,0.354,0.15,0,0.506,0.323,0.61,0,1,,,,,0.384,0.43,0,1,,,,
63838,20091112,-84.75,38.09,0.389,0.44,0,1,0.374,0.35,0,0.988,0.351,0.13,0,0.363,0.322,0.58,0,0.964,,,,,0.381,0.4,0,1,,,,
63838,20091113,-84.75,38.09,0.385,0.4,0,0.923,0.371,0.33,0,0.935,0.349,0.12,0,0.22,0.32,0.55,0,0.887,,,,,0.378,0.37,0,0.911,,,,
63838,20091114,-84.75,38.09,0.381,0.36,0,0.78,0.367,0.3,0,0.845,0.347,0.11,0,0.089,0.318,0.53,0,0.756,,,,,0.374,0.33,0,0.768,,,,
63838,20091115,-84.75,38.09,0.377,0.32,0,0.637,0.364,0.28,0,0.702,0.345,0.09,0,0,0.317,0.5,0,0.631,,,,,0.37,0.3,0,0.625,,,,
63838,20091116,-84.75,38.09,0.373,0.29,0,0.494,0.361,0.24,0,0.56,0.343,0.07,0,0,0.315,0.48,0,0.488,,,,,0.367,0.26,0,0.482,,,,
63838,20091117,-84.75,38.09,0.369,0.25,0,0.351,0.357,0.21,0,0.417,0.342,0.05,0,0,0.314,0.46,0,0.345,,,,,0.363,0.22,0,0.339,,,,
63838,20091118,-84.75,38.09,0.366,0.21,0,0.208,0.354,0.18,0,0.274,0.34,0.02,0,0,0.312,0.44,0,0.202,,,,,0.36,0.19,0,0.196,,,,
63838,20091119,-84.75,38.09,0.368,0.24,0,0.196,0.355,0.21,0,0.268,0.339,0,0,0,0.311,0.42,0,0.095,,,,,0.361,0.22,0,0.185,,,,
63838,20091120,-84.75,38.09,0.372,0.29,0,0.274,0.358,0.26,0,0.321,0.339,0.01,0,0.048,0.309,0.4,0,0.03,,,,,0.365,0.27,0,0.274,,,,
63838,20091121,-84.75,38.09,0.376,0.34,0,0.417,0.361,0.3,0,0.411,0.34,0.03,0,0.101,0.308,0.38,0,0.018,,,,,0.368,0.32,0,0.417,,,,
63838,20091122,-84.75,38.09,0.379,0.39,0,0.56,0.364,0.34,0,0.554,0.341,0.04,0,0.101,0.307,0.36,0,0,,,,,0.372,0.37,0,0.56,,,,
63838,20091123,-84.75,38.09,0.383,0.44,0,0.702,0.368,0.39,0,0.69,0.343,0.06,0,0.101,0.306,0.34,0,0.006,,,,,0.375,0.41,0,0.702,,,,
63838,20091124,-84.75,38.09,0.386,0.48,0,0.845,0.371,0.43,0,0.833,0.344,0.09,0,0.101,0.306,0.33,0,0.006,,,,,0.379,0.46,0,0.845,,,,
63838,20091125,-84.75,38.09,0.389,0.52,0,0.988,0.374,0.48,0,0.976,0.345,0.11,0,0.101,0.305,0.32,0,0.006,,,,,0.382,0.5,0,0.988,,,,
63838,20091126,-84.75,38.09,0.388,0.5,0,1,0.374,0.46,0,0.994,0.346,0.12,0,0.101,0.305,0.3,0,0.006,,,,,0.381,0.48,0,0.994,,,,
63838,20091127,-84.75,38.09,0.384,0.44,0,0.893,0.371,0.41,0,0.857,0.346,0.1,0,0.054,0.305,0.29,0,0.006,,,,,0.378,0.43,0,0.851,,,,
63838,20091128,-84.75,38.09,0.38,0.38,0,0.75,0.369,0.37,0,0.714,0.345,0.07,0,0,0.304,0.26,0,0.006,,,,,0.375,0.38,0,0.708,,,,
63838,20091129,-84.75,38.09,0.377,0.33,0,0.607,0.366,0.32,0,0.571,0.344,0.03,0.006,0,0.304,0.23,0,0.006,,,,,0.372,0.32,0,0.565,,,,
63838,20091130,-84.75,38.09,0.375,0.29,0,0.488,0.365,0.28,0,0.458,0.343,-0.02,0.006,0,0.304,0.2,0,0,,,,,0.37,0.28,0,0.446,,,,
63838,20091201,-84.75,38.09,0.378,0.34,0,0.488,0.367,0.32,0,0.458,0.343,-0.02,0.006,0,0.304,0.16,0,0,,,,,0.372,0.33,0,0.446,,,,
63838,20091202,-84.75,38.09,0.381,0.4,0,0.488,0.37,0.36,0,0.458,0.344,0,0.006,0.006,0.303,0.12,0,0,,,,,0.375,0.37,0,0.446,,,,
63838,20091203,-84.75,38.09,0.388,0.52,0,0.488,0.375,0.47,0,0.458,0.347,0.1,0.006,0.119,0.303,0.09,0,0,,,,,0.382,0.49,0,0.452,,,,
63838,20091204,-84.75,38.09,0.395,0.65,0,0.595,0.381,0.57,0,0.595,0.351,0.23,0.006,0.262,0.307,0.11,0,0.113,,,,,0.388,0.6,0,0.595,,,,
63838,20091205,-84.75,38.09,0.403,0.79,0,0.738,0.386,0.67,0,0.738,0.354,0.36,0.006,0.405,0.311,0.14,0,0.256,,,,,0.394,0.72,0,0.738,,,,
63838,20091206,-84.75,38.09,0.41,0.93,0,0.881,0.391,0.76,0,0.881,0.358,0.5,0,0.548,0.315,0.19,0,0.399,,,,,0.4,0.84,0,0.881,,,,
63838,20091207,-84.75,38.09,0.416,1.04,0,1,0.395,0.84,0,1,0.361,0.63,0,0.69,0.319,0.23,0,0.542,,,,,0.405,0.94,0,1,,,,
63838,20091208,-84.75,38.09,0.416,1.07,0,1,0.394,0.84,0,1,0.363,0.7,0,0.833,0.323,0.27,0,0.685,,,,,0.405,0.95,0,1,,,,
63838,20091209,-84.75,38.09,0.42,1.17,0,1,0.398,0.92,0,1,0.366,0.83,0,0.97,0.33,0.36,0,0.827,,,,,0.409,1.05,0,1,,,,
63838,20091210,-84.75,38.09,0.421,1.2,0,1,0.398,0.92,0,1,0.366,0.87,0,1,0.337,0.43,0,0.97,,,,,0.409,1.07,0,1,,,,
63838,20091211,-84.75,38.09,0.42,1.2,0,1,0.397,0.91,0,1,0.366,0.88,0,1,0.339,0.44,0,1,,,,,0.409,1.07,0,1,,,,
63838,20091212,-84.75,38.09,0.418,1.17,0,1,0.396,0.88,0,1,0.365,0.87,0,1,0.339,0.42,0,0.988,,,,,0.407,1.04,0,1,,,,
63838,20091213,-84.75,38.09,0.417,1.14,0,1,0.395,0.84,0,1,0.365,0.84,0,0.982,0.34,0.4,0,0.929,,,,,0.406,1,0,1,,,,
63838,20091214,-84.75,38.09,0.42,1.2,0,1,0.397,0.88,0,1,0.366,0.86,0,0.97,0.34,0.38,0,0.833,,,,,0.408,1.05,0,1,,,,
63838,20091215,-84.75,38.09,0.423,1.25,0,1,0.398,0.91,0,1,0.367,0.89,0,0.97,0.34,0.37,0,0.78,,,,,0.411,1.09,0,1,,,,
63838,20091216,-84.75,38.09,0.421,1.21,0,1,0.396,0.86,0,1,0.366,0.84,0,0.97,0.338,0.32,0,0.738,,,,,0.409,1.04,0,1,,,,
63838,20091217,-84.75,38.09,0.42,1.18,0,1,0.394,0.81,0,1,0.365,0.78,0,0.97,0.335,0.28,0,0.702,,,,,0.407,1,0,1,,,,
63838,20091218,-84.75,38.09,0.419,1.17,0,1,0.393,0.78,0,1,0.364,0.74,0,0.958,0.334,0.26,0,0.577,,,,,0.406,0.98,0,1,,,,
63838,20091219,-84.75,38.09,0.422,1.23,0,1,0.394,0.81,0,1,0.364,0.74,0,0.935,0.333,0.24,0,0.464,,,,,0.408,1.03,0,1,,,,
63838,20091220,-84.75,38.09,0.427,1.35,0,1,0.397,0.9,0,1,0.366,0.83,0,0.952,0.335,0.26,0,0.512,,,,,0.412,1.13,0,1,,,,
63838,20091221,-84.75,38.09,0.428,1.37,0,1,0.397,0.9,0,1,0.367,0.87,0,0.964,0.337,0.29,0,0.607,,,,,0.413,1.15,0,1,,,,
63838,20091222,-84.75,38.09,0.429,1.4,0,1,0.397,0.91,0,1,0.367,0.89,0,0.958,0.338,0.3,0,0.661,,,,,0.413,1.17,0,1,,,,
63838,20091223,-84.75,38.09,0.429,1.44,0,1,0.397,0.92,0,1,0.368,0.93,0,0.958,0.338,0.32,0,0.696,,,,,0.413,1.19,0,1,,,,
63838,20091224,-84.75,38.09,0.431,1.47,0,1,0.398,0.94,0,1,0.368,0.97,0,0.958,0.338,0.32,0,0.714,,,,,0.414,1.22,0,1,,,,
63838,20091225,-84.75,38.09,0.432,1.52,0,1,0.399,0.96,0,1,0.368,0.99,0,0.97,0.338,0.34,0,0.804,,,,,0.415,1.25,0,1,,,,
63838,20091226,-84.75,38.09,0.434,1.56,0,1,0.399,0.98,0,1,0.369,1.04,0,0.994,0.339,0.37,0,0.917,,,,,0.416,1.28,0,1,,,,
63838,20091227,-84.75,38.09,0.432,1.53,0,1,0.398,0.95,0,1,0.369,1.02,0,0.994,0.338,0.38,0,0.929,,,,,0.415,1.25,0,1,,,,
63838,20091228,-84.75,38.09,0.431,1.5,0,1,0.397,0.91,0,1,0.368,0.99,0,0.994,0.336,0.38,0,0.929,,,,,0.414,1.22,0,1,,,,
63838,20091229,-84.75,38.09,0.429,1.45,0,1,0.395,0.87,0,1,0.367,0.95,0,1,0.335,0.38,0,0.923,,,,,0.412,1.17,0,1,,,,
63838,20091230,-84.75,38.09,0.427,1.4,0,1,0.394,0.81,0,1,0.366,0.89,0,0.994,0.334,0.38,0,0.893,,,,,0.411,1.11,0,1,,,,
63838,20091231,-84.75,38.09,0.426,1.36,0,1,0.392,0.77,0,0.994,0.365,0.82,0,0.935,0.333,0.37,0,0.839,,,,,0.409,1.07,0,1,,,,
63838,20100101,-84.75,38.09,0.427,1.37,0,1,0.393,0.77,0,0.994,0.365,0.81,0,0.935,0.332,0.36,0,0.792,,,,,0.41,1.07,0,1,,,,
63838,20100102,-84.75,38.09,0.426,1.32,0,1,0.392,0.73,0,0.994,0.364,0.76,0,0.935,0.331,0.34,0,0.714,,,,,0.409,1.03,0,1,,,,
63838,20100103,-84.75,38.09,0.425,1.27,0,1,0.39,0.68,0,0.994,0.363,0.7,0,0.923,0.33,0.3,0,0.619,,,,,0.408,0.99,0,1,,,,
63838,20100104,-84.75,38.09,,,,,0.387,0.6,0,0.851,0.362,0.63,0,0.857,0.329,0.27,0,0.512,,,,,,,,,,,,
63838,20100105,-84.75,38.09,,,,,0.384,0.5,0.012,0.708,0.361,0.56,0,0.726,0.328,0.23,0,0.387,,,,,,,,,,,,
63838,20100106,-84.75,38.09,,,,,0.382,0.44,0.013,0.594,0.36,0.48,0,0.589,0.328,0.2,0,0.292,,,,,,,,,,,,
63838,20100107,-84.75,38.09,,,,,0.381,0.42,0.015,0.529,0.358,0.39,0.018,0.506,0.327,0.16,0,0.226,,,,,,,,,,,,
63838,20100108,-84.75,38.09,,,,,,,,,0.355,0.22,0.137,0.363,0.326,0.12,0,0.167,,,,,,,,,,,,
63838,20100109,-84.75,38.09,,,,,,,,,0.351,0.01,0.28,0.22,0.325,0.08,0,0.113,,,,,,,,,,,,
63838,20100110,-84.75,38.09,,,,,,,,,0.347,-0.2,0.423,0.089,0.324,0.03,0,0.071,,,,,,,,,,,,
63838,20100111,-84.75,38.09,,,,,,,,,0.344,-0.38,0.565,0.012,0.322,-0.02,0.006,0.036,,,,,,,,,,,,
63838,20100112,-84.75,38.09,,,,,,,,,0.341,-0.54,0.708,0,0.321,-0.07,0.018,0.024,,,,,,,,,,,,
63838,20100113,-84.75,38.09,,,,,,,,,0.338,-0.68,0.851,0,0.319,-0.13,0.024,0.012,,,,,,,,,,,,
63838,20100114,-84.75,38.09,,,,,,,,,0.335,-0.8,0.976,0,0.318,-0.17,0.054,0.006,,,,,,,,,,,,
63838,20100115,-84.75,38.09,,,,,,,,,0.333,-0.91,1,0,0.317,-0.21,0.065,0.006,,,,,,,,,,,,
63838,20100116,-84.75,38.09,,,,,,,,,0.332,-0.96,1,0,0.315,-0.27,0.137,0.006,,,,,,,,,,,,
63838,20100117,-84.75,38.09,,,,,,,,,0.332,-0.96,0.988,0,0.313,-0.32,0.196,0,,,,,,,,,,,,
63838,20100118,-84.75,38.09,,,,,,,,,0.336,-0.75,0.845,0.125,0.315,-0.25,0.22,0.095,,,,,,,,,,,,
63838,20100119,-84.75,38.09,,,,,,,,,0.341,-0.51,0.702,0.268,0.319,-0.11,0.208,0.238,,,,,,,,,,,,
63838,20100120,-84.75,38.09,,,,,,,,,0.345,-0.28,0.56,0.411,0.322,0.03,0.202,0.381,,,,,,,,,,,,
63838,20100121,-84.75,38.09,,,,,,,,,0.351,0.01,0.417,0.554,0.328,0.23,0.173,0.524,,,,,,,,,,,,
63838,20100122,-84.75,38.09,,,,,,,,,0.358,0.34,0.274,0.696,0.335,0.49,0.161,0.667,,,,,,,,,,,,
63838,20100123,-84.75,38.09,,,,,0.403,1.04,0,1,0.363,0.64,0.131,0.839,0.34,0.7,0.089,0.81,,,,,,,,,,,,
63838,20100124,-84.75,38.09,0.423,1.23,0,1,0.402,1.02,0,1,0.368,0.87,0,0.982,0.345,0.88,0.03,0.952,,,,,0.413,1.12,0,1,,,,
63838,20100125,-84.75,38.09,0.427,1.3,0,1,0.405,1.07,0,1,0.37,0.95,0,1,0.35,1.06,0,1,,,,,0.416,1.19,0,1,,,,
63838,20100126,-84.75,38.09,0.429,1.35,0,1,0.407,1.12,0,1,0.371,0.98,0,1,0.352,1.09,0,1,,,,,0.418,1.24,0,1,,,,
63838,20100127,-84.75,38.09,0.43,1.35,0,1,0.408,1.13,0,1,0.371,0.99,0,1,0.352,1.07,0,0.994,,,,,0.419,1.25,0,1,,,,
63838,20100128,-84.75,38.09,0.426,1.24,0,1,0.405,1.04,0,1,0.37,0.94,0,0.994,0.35,0.98,0,0.94,,,,,0.416,1.16,0,1,,,,